When you browse on this site, cookies collect data to enhance your experience and personalize the content and advertising you see.
Visit our Privacy Policy to learn more. By continuing to use the site, you agree to this use of cookies and data.
  • In Hungary
  • List of Countries
  • For 7 days
  • Water Temperature
  • Satellite Maps
  • Weather Map
  • News
  • Weather Widgets
  • user-avatar
    Login

    Hourly Weather Potosi

    Today, 18 November, Sunday

    Time Temperature Precipitation Wind Pressure Humidity
    00:00 +12°C° 0.1 mm 1 mps 469 mmHg 57%
    01:00 +12°C° 0.1 mm 1 mps 469 mmHg 58%
    02:00 +11°C° 0.1 mm 1 mps 468 mmHg 60%
    03:00 +11°C° 0 mm 1 mps 468 mmHg 61%
    04:00 +11°C° 0 mm 1 mps 468 mmHg 63%
    05:00 +10°C° 0 mm 1 mps 468 mmHg 65%
    06:00 +11°C° 0.1 mm 1 mps 469 mmHg 60%
    07:00 +12°C° 0.1 mm 1 mps 469 mmHg 56%
    08:00 +12°C° 0.1 mm 2 mps 470 mmHg 52%
    09:00 +12°C° 0.2 mm 3 mps 471 mmHg 49%
    10:00 +13°C° 0.2 mm 3 mps 471 mmHg 45%
    11:00 +14°C° 0.2 mm 4 mps 472 mmHg 42%
    12:00 +14°C° 0.8 mm 5 mps 472 mmHg 44%
    13:00 +14°C° 0.8 mm 6 mps 471 mmHg 47%
    14:00 +14°C° 0.8 mm 6 mps 471 mmHg 49%
    15:00 +13°C° 0.8 mm 6 mps 470 mmHg 54%
    16:00 +11°C° 0.8 mm 6 mps 469 mmHg 59%
    17:00 +10°C° 0.8 mm 5 mps 468 mmHg 64%
    18:00 +9°C° 1 mm 5 mps 468 mmHg 68%
    19:00 +8°C° 1 mm 4 mps 468 mmHg 72%
    20:00 +7°C° 1 mm 4 mps 468 mmHg 76%
    21:00 +8°C° 0.9 mm 3 mps 469 mmHg 77%
    22:00 +8°C° 0.9 mm 3 mps 469 mmHg 79%
    23:00 +8°C° 0.9 mm 2 mps 469 mmHg 80%

    Tomorrow, 19 November, Monday

    Time Temperature Precipitation Wind Pressure Humidity
    00:00 +7°C° 1.4 mm 2 mps 469 mmHg 81%
    01:00 +7°C° 1.4 mm 2 mps 468 mmHg 83%
    02:00 +7°C° 1.4 mm 2 mps 468 mmHg 84%
    03:00 +7°C° 2.1 mm 2 mps 468 mmHg 85%
    04:00 +6°C° 2.1 mm 2 mps 467 mmHg 85%
    05:00 +6°C° 2.1 mm 2 mps 467 mmHg 86%
    06:00 +6°C° 0.9 mm 2 mps 467 mmHg 85%
    07:00 +6°C° 0.9 mm 2 mps 468 mmHg 83%
    08:00 +7°C° 0.9 mm 2 mps 468 mmHg 82%
    09:00 +7°C° 0.1 mm 2 mps 469 mmHg 77%
    10:00 +8°C° 0.1 mm 2 mps 469 mmHg 72%
    11:00 +9°C° 0.1 mm 3 mps 470 mmHg 66%
    12:00 +10°C° 0.3 mm 3 mps 470 mmHg 63%
    13:00 +11°C° 0.3 mm 3 mps 470 mmHg 60%
    14:00 +12°C° 0.3 mm 4 mps 470 mmHg 56%
    15:00 +11°C° 0.3 mm 4 mps 469 mmHg 58%
    16:00 +11°C° 0.3 mm 4 mps 468 mmHg 59%
    17:00 +11°C° 0.3 mm 4 mps 468 mmHg 60%
    18:00 +10°C° 0 mm 4 mps 468 mmHg 63%
    19:00 +10°C° 0 mm 3 mps 468 mmHg 67%
    20:00 +9°C° 0 mm 3 mps 468 mmHg 70%
    21:00 +9°C° 0.1 mm 3 mps 468 mmHg 72%
    22:00 +9°C° 0.1 mm 3 mps 469 mmHg 73%
    23:00 +8°C° 0.1 mm 2 mps 469 mmHg 75%

    Day after tomorrow, 20 November, Tuesday

    Time Temperature Precipitation Wind Pressure Humidity
    00:00 +8°C° 0 mm 2 mps 469 mmHg 76%
    01:00 +8°C° 0 mm 2 mps 468 mmHg 77%
    02:00 +7°C° 0 mm 2 mps 468 mmHg 78%
    03:00 +8°C° 0 mm 1 mps 468 mmHg 79%
    04:00 +8°C° 0 mm 1 mps 467 mmHg 81%
    05:00 +8°C° 0 mm 1 mps 467 mmHg 82%
    06:00 +8°C° 0 mm 1 mps 468 mmHg 77%
    07:00 +9°C° 0 mm 1 mps 468 mmHg 72%
    08:00 +10°C° 0 mm 1 mps 469 mmHg 68%
    09:00 +11°C° 0 mm 1 mps 470 mmHg 61%
    10:00 +12°C° 0 mm 2 mps 471 mmHg 55%
    11:00 +13°C° 0 mm 3 mps 472 mmHg 49%
    12:00 +13°C° 0.2 mm 3 mps 471 mmHg 49%
    13:00 +13°C° 0.2 mm 4 mps 471 mmHg 49%
    14:00 +14°C° 0.2 mm 4 mps 470 mmHg 49%
    15:00 +13°C° 0.3 mm 4 mps 470 mmHg 52%
    16:00 +13°C° 0.3 mm 4 mps 469 mmHg 54%
    17:00 +12°C° 0.3 mm 5 mps 468 mmHg 57%
    18:00 +12°C° 0.3 mm 4 mps 469 mmHg 61%
    19:00 +11°C° 0.3 mm 4 mps 469 mmHg 65%
    20:00 +10°C° 0.3 mm 4 mps 469 mmHg 69%
    21:00 +10°C° 0.2 mm 4 mps 469 mmHg 71%
    22:00 +9°C° 0.2 mm 3 mps 469 mmHg 73%
    23:00 +9°C° 0.2 mm 3 mps 469 mmHg 74%

    21 November, Wednesday

    Time Temperature Precipitation Wind Pressure Humidity
    00:00 +8°C° 0.1 mm 3 mps 469 mmHg 75%
    01:00 +8°C° 0.1 mm 2 mps 468 mmHg 76%
    02:00 +8°C° 0.1 mm 2 mps 468 mmHg 77%
    03:00 +8°C° 0 mm 2 mps 468 mmHg 77%
    04:00 +8°C° 0 mm 2 mps 468 mmHg 77%
    05:00 +8°C° 0 mm 1 mps 468 mmHg 77%
    06:00 +9°C° 0 mm 1 mps 468 mmHg 74%
    07:00 +9°C° 0 mm 1 mps 469 mmHg 72%
    08:00 +10°C° 0 mm 1 mps 470 mmHg 69%
    09:00 +10°C° 0.1 mm 2 mps 470 mmHg 62%
    10:00 +13°C° 0.1 mm 2 mps 471 mmHg 55%
    11:00 +13°C° 0.1 mm 3 mps 471 mmHg 48%
    12:00 +14°C° 0.1 mm 3 mps 471 mmHg 45%
    13:00 +16°C° 0.1 mm 3 mps 471 mmHg 42%
    14:00 +15°C° 0.1 mm 4 mps 471 mmHg 40%
    15:00 +15°C° 0.2 mm 5 mps 470 mmHg 42%
    16:00 +14°C° 0.2 mm 5 mps 469 mmHg 45%
    17:00 +14°C° 0.2 mm 6 mps 469 mmHg 48%
    18:00 +13°C° 1.5 mm 5 mps 468 mmHg 56%
    19:00 +10°C° 1.5 mm 5 mps 468 mmHg 64%
    20:00 +10°C° 1.5 mm 4 mps 467 mmHg 72%
    21:00 +10°C° 0.8 mm 4 mps 468 mmHg 71%
    22:00 +10°C° 0.8 mm 4 mps 468 mmHg 69%
    23:00 +10°C° 0.8 mm 3 mps 468 mmHg 68%

    22 November, Thursday

    Time Temperature Precipitation Wind Pressure Humidity
    00:00 +9°C° 0.2 mm 3 mps 468 mmHg 70%
    01:00 +9°C° 0.2 mm 2 mps 468 mmHg 72%
    02:00 +9°C° 0.2 mm 2 mps 467 mmHg 74%
    03:00 +8°C° 0.6 mm 2 mps 467 mmHg 74%
    04:00 +8°C° 0.6 mm 2 mps 467 mmHg 75%
    05:00 +8°C° 0.6 mm 2 mps 467 mmHg 76%
    06:00 +9°C° 0.4 mm 2 mps 468 mmHg 70%
    07:00 +9°C° 0.4 mm 2 mps 468 mmHg 65%
    08:00 +11°C° 0.4 mm 1 mps 469 mmHg 59%
    09:00 +12°C° 0.3 mm 2 mps 470 mmHg 54%
    10:00 +13°C° 0.3 mm 2 mps 470 mmHg 48%
    11:00 +15°C° 0.3 mm 2 mps 471 mmHg 42%
    12:00 +14°C° 0.1 mm 3 mps 470 mmHg 41%
    13:00 +15°C° 0.1 mm 4 mps 470 mmHg 40%
    14:00 +15°C° 0.1 mm 4 mps 470 mmHg 39%
    15:00 +15°C° 0.8 mm 5 mps 469 mmHg 44%
    16:00 +14°C° 0.8 mm 5 mps 468 mmHg 49%
    17:00 +13°C° 0.8 mm 6 mps 468 mmHg 54%
    18:00 +12°C° 0.9 mm 5 mps 468 mmHg 59%
    19:00 +11°C° 0.9 mm 4 mps 467 mmHg 64%
    20:00 +10°C° 0.9 mm 3 mps 467 mmHg 69%
    21:00 +10°C° 0.1 mm 3 mps 467 mmHg 71%
    22:00 +9°C° 0.1 mm 2 mps 467 mmHg 72%
    23:00 +9°C° 0.1 mm 2 mps 467 mmHg 74%

    23 November, Friday

    Time Temperature Precipitation Wind Pressure Humidity
    00:00 +9°C° 0.1 mm 2 mps 467 mmHg 75%
    01:00 +9°C° 0.1 mm 2 mps 467 mmHg 76%
    02:00 +8°C° 0.1 mm 2 mps 466 mmHg 77%
    03:00 +8°C° 0.2 mm 2 mps 466 mmHg 78%
    04:00 +8°C° 0.2 mm 2 mps 467 mmHg 78%
    05:00 +8°C° 0.2 mm 2 mps 467 mmHg 79%
    06:00 +8°C° 0.5 mm 2 mps 467 mmHg 79%
    07:00 +7°C° 0.5 mm 3 mps 467 mmHg 79%
    08:00 +7°C° 0.5 mm 3 mps 468 mmHg 78%
    09:00 +8°C° 0.5 mm 3 mps 468 mmHg 75%
    10:00 +8°C° 0.5 mm 3 mps 468 mmHg 71%
    11:00 +8°C° 0.5 mm 3 mps 468 mmHg 68%
    12:00 +9°C° 0.3 mm 3 mps 468 mmHg 63%
    13:00 +10°C° 0.3 mm 3 mps 468 mmHg 57%
    14:00 +11°C° 0.3 mm 3 mps 468 mmHg 52%
    15:00 +11°C° 0.1 mm 3 mps 467 mmHg 52%
    16:00 +11°C° 0.1 mm 4 mps 467 mmHg 52%
    17:00 +11°C° 0.1 mm 4 mps 467 mmHg 52%
    18:00 +10°C° 0.2 mm 4 mps 467 mmHg 57%
    19:00 +8°C° 0.2 mm 4 mps 467 mmHg 62%
    20:00 +9°C° 0.2 mm 3 mps 467 mmHg 68%
    21:00 +8°C° 0.8 mm 3 mps 467 mmHg 72%
    22:00 +7°C° 0.8 mm 2 mps 467 mmHg 76%
    23:00 +7°C° 0.8 mm 2 mps 467 mmHg 80%
    Show more